sat.trackr.live / text

‹ back to catalog

SCS-01 K

NORAD 63991 · 2025-100K

PAYLOAD ACTIVE UNKNOWN

§ Identity

Operator
Country
PRC
Launch date
2025-05-14
Launch site
JSC
Launch vehicle
Mass (kg)
RCS (m²)

External: N2YO · Heavens-Above · Gunter

§ Orbital elements

Epoch: 2026-05-25T00:30:14.543424Z

Period
94.75 min
Inclination
97.3638°
Eccentricity
0.0011927
Mean motion
15.19846838 rev/d
Perigee alt
498.1 km
Apogee alt
514.5 km
Semi-major
6,884.4 km
B*
6.7403e-4
RAAN
218.3434°
Arg perigee
54.6308°
Mean anomaly
305.6039°
Rev number
5,710

§ Raw data

SCS-01 K1 63991U 25100K   26145.02100166  .00014429  00000+0  67403-3 0  99922 63991  97.3638 218.3434 0011927  54.6308 305.6039 15.19846838 57109

JSON: /api/v1/satellites/63991 · /tle

For live sub-satellite position, see the globe view (requires WebGL).

§ Visibility from observer

Set your observer location to see the next 7 days of passes ≥ 10°. The values pass through the URL so the page stays shareable.

No JS? Fill the form by hand. The geolocation button needs JavaScript.